Location: Newark
(52.2090°N, 4.1550°W)
Time: 22:19:15
(UTC+00:00)

Explorer 7 - Pass Details

Date: 22 September 2019
Orbit: 485 x 680 km, 50.3° (Epoch: 14 October)

Event Time Altitude Azimuth Distance (km) Brightness Sun altitude
Rises 21:02:37 0° 188° (S) 2,768 - -24.7°
Reaches altitude 10° 21:06:05 10° 159° (SSE) 1,926 - -25.1°
Maximum altitude 21:07:53 12° 134° (SE) 1,803 - -25.4°
Drops below altitude 10° 21:09:44 10° 110° (ESE) 1,982 - -25.6°
Sets 21:13:25 0° 81° (E) 2,942 - -26.0°
